Location: La Trinit�
(48.1620°N, 3.4512°W)
Time: 17:43:41
(UTC+00:00)

Cosmos 1975 - Pass Details

Date: 08 May 2021
Orbit: 541 x 560 km, 82.5° (Epoch: 21 June)

Event Time Altitude Azimuth Distance (km) Brightness Sun altitude
Rises 23:05:36 0° 357° (N) 2,718 7.7 -22.9°
Reaches altitude 10° 23:07:54 10° 6° (N) 1,819 6.4 -23.0°
Enters shadow 23:11:29 36° 70° (ENE) 871 3.8 -23.2°
